Volver al catálogo

ALSAT 2B

ActivoCienciaSSO
NORAD 41786·PAYLOAD·🇩🇿 Algeria

Lanzado Sep 26, 2016 desde Satish Dhawan Space Centre

Loading…

Próximos Pases (próximas 24 horas)

TLE

ActualizadoSource: Space-Track

Época: Sep 14, 2026, 14:18 UTC

1 41786U 16059D   26257.59641563  .00000273  00000-0  52453-4 0  9993
2 41786  97.9812 318.1134 0000820  64.2705 295.8587 14.70963642533916

Sigue ALSAT 2B en tiempo real con AllMySat

Download on the App Store